Regional Weather Roundup
Issued by NWS

Home | Current Version | Previous Version | Graphics & Text | Print | Product List | Glossary On
Versions: 1 2 3 4 5 6 7 8 9 10 11 12 13 14 15 16 17 18 19 20 21 22 23 24 25 26 27 28 29 30 31 32 33 34 35 36 37 38 39 40 41 42 43 44 45 46 47 48 49 50
000
ASUS43 KTOP 230108
RWRKS

WEATHER ROUNDUP FOR KANSAS
NATIONAL WEATHER SERVICE GOODLAND KS
800 PM CDT SAT JUL 22 2017

NOTE:  "FAIR" INDICATES FEW OR NO CLOUDS BELOW 12,000 FEET WITH NO
SIGNIFICANT WEATHER AND/OR OBSTRUCTIONS TO VISIBILITY.

KSZ001>006-013>018-027>032-041>047-230200-
NORTHWEST KANSAS

CITY           SKY/WX    TMP DP  RH WIND       PRES   REMARKS
GOODLAND       CLOUDY    81  51  35 NE12      30.07R
HAYS           LGT RAIN  75  70  83 NE15      29.95R
HILL CITY      LGT RAIN  75  71  87 N12       30.01R
RUSSELL        CLOUDY    75  67  76 N32G43    29.93R
$$

KSZ061>065-074>080-084>089-230200-
SOUTHWEST KANSAS

CITY           SKY/WX    TMP DP  RH WIND       PRES   REMARKS
DODGE CITY     MOCLDY    79  65  62 NE20G30   29.92R
ELKHART          N/A     89  52  28 N9          N/A
GARDEN CITY    SUNNY     82  63  52 NE16      29.95R
LIBERAL        SUNNY     95  59  30 N14       29.92R
PRATT          PTCLDY    96  53  23 SE6       29.84R
$$

KSZ066>073-081>083-090>101-230200-
SOUTHEAST KANSAS

CITY           SKY/WX    TMP DP  RH WIND       PRES   REMARKS
CHANUTE        PTCLDY    95  73  48 S14       29.79R HX 104
COFFEYVILLE    CLEAR     93  74  53 S10       29.80R HX 103
HUTCHINSON     PTCLDY   101  56  22 SW8       29.80R HX 100
MEDICINE LODGE   N/A    100  58  24 S7        29.80R HX  99
NEWTON         CLEAR     98  62  30 S13       29.81R HX  99
PARSONS        CLEAR     93  73  52 S12       29.81R HX 102
WICHITA INTL   PTCLDY    96  63  33 SE10      29.79R HX  97
WICHITA JABRA  CLEAR     97  63  32 S13       29.80R HX  98
WINFIELD       CLEAR     96  64  34 S10       29.81R HX  98
$$

KSZ007>012-019>026-033>040-048>060-102>105-230200-
NORTHEAST KANSAS

CITY           SKY/WX    TMP DP  RH WIND       PRES   REMARKS
CONCORDIA      TSTM      73  71  93 S23G39    29.98R
EMPORIA        CLEAR     91  69  48 S7        29.80R HX  96
LAWRENCE       CLEAR     89  78  70 N7        29.79R HX 103
MANHATTAN      CLOUDY    81  71  71 NE8       29.86R THUNDER
MARYSVILLE     CLOUDY    82  68  61 SE8G16    29.89R
OLATHE IND     CLEAR     90  76  63 N5        29.83R HX 101
OLATHE EXE     CLEAR     93  74  53 N3        29.83R HX 103
SALINA         LGT RAIN  80  71  74 NW14      29.88R
TOPEKA BILLARD TSTM      80  70  71 SE18G31   29.87R
TOPEKA FORBES  TSTM      83  70  64 N23G30    29.84R
$$




USA.gov is the U.S. government's official web portal to all federal, state and local government web resources and services.